Погода в Свердлове

Россия / Оренбургская область     52°09′43″N   52°17′32″E
темп.,
°C
ветер,
м/с
пор.,
м/с
влажн.,
%
обл.,
%
осадки,
мм/ч
давл.,
гПа
погр.,
м
5 августа, чт
чт523:00+28сз51240100 0.0 1010298
02:00+24с51061100 0.0 1010251
05:00+22с3666100 0.0 1011180
08:00+22сз467036 0.0 1012319
11:00+26ссз7750100 0.0 1012887
14:00+28ссз6639100 0.0 10111692
17:00+30сз66290 0.0 10112505
20:00+28ссз682634 0.0 1011784
6 августа, пт
пт623:00+23ссз61234100 0.0 1013407
02:00+18ссз494863 0.0 1014162
05:00+16ссз35680 0.0 101495
08:00+19с47571 0.0 1015270
11:00+25ссв5636100 0.0 10151754
14:00+28с55275 0.0 10142420
17:00+29с56226 0.0 10142608
20:00+27с47245 0.0 1014347
7 августа, сб
сб723:00+20ссв333212 0.0 101533
02:00+17с2238100 0.0 101517
05:00+16всв344766 0.0 101651
08:00+19всв46395 0.0 1017191
11:00+26св33252 0.0 10171249
14:00+29ссв45214 0.0 10161779
17:00+31св45214 0.0 10152170
20:00+29св46264 0.0 1015284
8 августа, вс
вс823:00+22всв411405 0.0 1017193
02:00+19всв374935 0.0 1017111
05:00+18всв335578 0.0 101847
08:00+20всв4647100 0.0 1019214
11:00+26всв563193 0.0 1019792
14:00+30св452614 0.0 10181635
17:00+32св45245 0.0 10172077
20:00+30всв4727100 0.0 1017315
9 августа, пн
пн923:00+24всв3440100 0.0 101862
02:00+22в4942100 0.0 1018164
05:00+20в3338100 0.0 101948
08:00+22в4632100 0.0 1019201
11:00+27всв5626100 0.0 1019795
14:00+31всв552597 0.0 10181437
17:00+31всв552413 0.0 10171702
20:00+29всв572774 0.0 1016461